Location: Balaclava NSW 2575, Australia
(34.4510°S, 150.4953°E)
Time: 05:42:32
(UTC+10:00)

Transit 2A - Visible Passes

Search period start: 14 June 2021 00:00
Search period end: 24 June 2021 00:00
Orbit: 601 x 958 km, 66.7° (Epoch: 13 June)

Date Brightness Start Highest point End Pass type
(mag) Time Alt. Az. Time Alt. Az. Time Alt. Az.
14 Jun 8.3 04:25:58 10° NNE 04:31:10 29° ENE 04:36:33 10° SE visible
14 Jun 6.8 06:08:17 10° NW 06:14:11 43° WSW 06:20:16 10° SSE visible
15 Jun 8.8 03:52:55 10° NNE 03:57:12 20° ENE 04:01:36 10° ESE visible
15 Jun 6.4 05:33:44 10° NW 05:39:54 61° WSW 05:46:15 10° SSE visible
16 Jun 9.2 03:20:43 10° NE 03:23:18 13° E 03:25:54 10° ESE visible
16 Jun 6.3 04:59:26 10° NNW 05:05:40 86° WSW 05:12:07 10° SSE visible
17 Jun 6.7 04:28:58 37° N 04:31:30 67° ENE 04:37:52 10° SSE visible
17 Jun 7.6 06:10:36 10° W 06:15:18 21° SW 06:20:03 10° S visible
18 Jun 7.4 03:58:25 42° E 03:58:25 42° E 04:03:29 10° SE visible
18 Jun 7.2 05:39:03 25° W 05:40:51 29° SW 05:46:20 10° S visible
19 Jun 8.6 03:26:54 19° ESE 03:26:54 19° ESE 03:28:54 10° SE visible
19 Jun 7.0 05:07:29 38° SW 05:07:29 38° SW 05:12:27 10° SSE visible
20 Jun 7.7 04:35:26 29° S 04:35:26 29° S 04:38:28 10° SSE visible
20 Jun 8.2 06:15:59 10° SW 06:16:46 10° SW 06:17:41 10° SSW visible
21 Jun 8.5 04:03:05 17° SSE 04:03:05 17° SSE 04:04:22 10° SSE visible
21 Jun 8.2 05:43:37 14° SSW 05:43:37 14° SSW 05:45:30 10° SSW visible
22 Jun 8.3 05:11:02 13° SSW 05:11:02 13° SSW 05:12:09 10° S visible
23 Jun 8.7 04:38:19 11° S 04:38:19 11° S 04:38:29 10° S visible
